| time (UTC) | temp C | wind direction | speed KPH | gust KPH | rain 1hr cm | rain 24hr cm | rain mn cm | humidity % | barometer mb |
| 20260508214730 | 10 | 60 | 4.8 | 4.8 | 0.00 | 0.00 | 0.00 | 58 | 1023.1 |
| 20260508214227 | 10 | 272 | 6.4 | 6.4 | 0.00 | 0.00 | 0.00 | 60 | 1023.3 |
| 20260508213723 | 10 | 19 | 8.0 | 11.3 | 0.00 | 0.00 | 0.00 | 61 | 1023.3 |
| 20260508213220 | 10 | 158 | 1.6 | 4.8 | 0.00 | 0.00 | 0.00 | 60 | 1023.3 |
| 20260508212717 | 10 | 323 | 3.2 | 3.2 | 0.00 | 0.00 | 0.00 | 60 | 1023.1 |
| 20260508212213 | 10 | 333 | 4.8 | 6.4 | 0.00 | 0.00 | 0.00 | 60 | 1022.8 |
| 20260508211709 | 10 | 17 | 0.0 | 3.2 | 0.00 | 0.00 | 0.00 | 61 | 1023.2 |
| 20260508211205 | 10 | 46 | 4.8 | 9.7 | 0.00 | 0.00 | 0.00 | 61 | 1023.1 |
| 20260508210702 | 10 | 26 | 3.2 | 9.7 | 0.00 | 0.00 | 0.00 | 61 | 1023.5 |
| 20260508210200 | 10 | 26 | 3.2 | 6.4 | 0.00 | 0.00 | 0.00 | 60 | 1023.3 |
| 20260508205656 | 9 | 241 | 4.8 | 4.8 | 0.00 | 0.00 | 0.00 | 62 | 1023.2 |
| 20260508205153 | 10 | 98 | 8.0 | 12.9 | 0.00 | 0.00 | 0.00 | 61 | 1023.2 |
| 20260508204649 | 10 | 358 | 3.2 | 11.3 | 0.00 | 0.00 | 0.00 | 62 | 1023.5 |
| 20260508204145 | 10 | 204 | 3.2 | 12.9 | 0.00 | 0.00 | 0.00 | 61 | 1023.3 |
| 20260508203641 | 10 | 174 | 9.7 | 14.5 | 0.00 | 0.00 | 0.00 | 62 | 1023.3 |
| 20260508203138 | 11 | 50 | 6.4 | 12.9 | 0.00 | 0.00 | 0.00 | 60 | 1023.5 |
| 20260508202634 | 10 | 311 | 3.2 | 12.9 | 0.00 | 0.00 | 0.00 | 59 | 1023.5 |
| 20260508202131 | 11 | 267 | 1.6 | 12.9 | 0.00 | 0.00 | 0.00 | 59 | 1023.6 |
| 20260508201628 | 9 | 268 | 0.0 | 9.7 | 0.00 | 0.00 | 0.00 | 62 | 1023.5 |
| 20260508201125 | 10 | 104 | 4.8 | 11.3 | 0.00 | 0.00 | 0.00 | 61 | 1023.5 |
| 20260508200621 | 11 | 15 | 3.2 | 14.5 | 0.00 | 0.00 | 0.00 | 60 | 1023.6 |
| 20260508200117 | 11 | 57 | 8.0 | 12.9 | 0.00 | 0.00 | 0.00 | 57 | 1023.3 |
| 20260508195614 | 10 | 151 | 6.4 | 9.7 | 0.00 | 0.00 | 0.00 | 59 | 1023.6 |
| 20260508195111 | 9 | 116 | 4.8 | 11.3 | 0.00 | 0.00 | 0.00 | 62 | 1023.6 |
| 20260508194607 | 10 | 169 | 6.4 | 11.3 | 0.00 | 0.00 | 0.00 | 62 | 1023.9 |
| 20260508194104 | 10 | 1 | 3.2 | 14.5 | 0.00 | 0.00 | 0.00 | 61 | 1023.7 |
| 20260508193601 | 10 | 309 | 1.6 | 11.3 | 0.00 | 0.00 | 0.00 | 58 | 1023.6 |
| 20260508193058 | 9 | 277 | 4.8 | 6.4 | 0.00 | 0.00 | 0.00 | 59 | 1023.9 |
| 20260508192554 | 10 | 359 | 9.7 | 14.5 | 0.00 | 0.00 | 0.00 | 61 | 1023.6 |
| 20260508192052 | 9 | 88 | 9.7 | 12.9 | 0.00 | 0.00 | 0.00 | 62 | 1023.7 |
| 20260508191548 | 8 | 18 | 3.2 | 12.9 | 0.00 | 0.00 | 0.00 | 64 | 1023.5 |
| 20260508191045 | 9 | 325 | 8.0 | 11.3 | 0.00 | 0.00 | 0.00 | 64 | 1023.7 |
| 20260508190542 | 9 | 298 | 3.2 | 11.3 | 0.00 | 0.00 | 0.00 | 62 | 1023.9 |
| 20260508190038 | 10 | 95 | 4.8 | 12.9 | 0.00 | 0.00 | 0.00 | 57 | 1023.7 |
| 20260508185536 | 9 | 333 | 4.8 | 16.1 | 0.00 | 0.00 | 0.00 | 61 | 1023.9 |
| 20260508185033 | 8 | 25 | 3.2 | 11.3 | 0.00 | 0.00 | 0.00 | 62 | 1023.9 |
| 20260508184531 | 10 | 353 | 4.8 | 12.9 | 0.00 | 0.00 | 0.00 | 61 | 1023.9 |
| 20260508184027 | 10 | 357 | 3.2 | 9.7 | 0.00 | 0.00 | 0.00 | 62 | 1023.5 |
| 20260508183524 | 8 | 170 | 9.7 | 14.5 | 0.00 | 0.00 | 0.00 | 64 | 1023.9 |
| 20260508183020 | 9 | 316 | 8.0 | 9.7 | 0.00 | 0.00 | 0.00 | 60 | 1024.0 |
| 20260508182517 | 8 | 265 | 1.6 | 9.7 | 0.00 | 0.00 | 0.00 | 66 | 1023.9 |
| 20260508182013 | 9 | 357 | 6.4 | 16.1 | 0.00 | 0.00 | 0.00 | 65 | 1023.6 |
| 20260508181508 | 10 | 250 | 3.2 | 9.7 | 0.00 | 0.00 | 0.00 | 63 | 1023.7 |
| 20260508181007 | 8 | 317 | 1.6 | 11.3 | 0.00 | 0.00 | 0.00 | 67 | 1024.0 |
| 20260508180503 | 9 | 16 | 6.4 | 14.5 | 0.00 | 0.00 | 0.00 | 65 | 1023.7 |
| 20260508175959 | 9 | 316 | 8.0 | 16.1 | 0.00 | 0.00 | 0.00 | 63 | 1023.7 |
| 20260508175455 | 8 | 338 | 3.2 | 6.4 | 0.00 | 0.00 | 0.00 | 65 | 1023.9 |
| 20260508174953 | 8 | 0 | 3.2 | 14.5 | 0.00 | 0.00 | 0.00 | 66 | 1024.0 |
| 20260508174451 | 8 | 23 | 9.7 | 16.1 | 0.00 | 0.00 | 0.00 | 65 | 1023.9 |
| 20260508173947 | 10 | 313 | 9.7 | 14.5 | 0.00 | 0.00 | 0.00 | 61 | 1023.9 |
| 20260508173445 | 10 | 322 | 8.0 | 12.9 | 0.00 | 0.00 | 0.00 | 58 | 1023.7 |
| 20260508172940 | 11 | 335 | 12.9 | 16.1 | 0.00 | 0.00 | 0.00 | 39 | 1023.5 |
| 20260508172438 | 11 | 343 | 12.9 | 16.1 | 0.00 | 0.00 | 0.00 | 44 | 1023.9 |
| 20260508171934 | 11 | 4 | 16.1 | 24.1 | 0.00 | 0.00 | 0.00 | 38 | 1023.9 |
| 20260508171430 | 10 | 319 | 9.7 | 14.5 | 0.00 | 0.00 | 0.00 | 39 | 1024.0 |
| 20260508170927 | 10 | 344 | 17.7 | 24.1 | 0.00 | 0.00 | 0.00 | 39 | 1024.1 |
| 20260508170425 | 11 | 314 | 9.7 | 20.9 | 0.00 | 0.00 | 0.00 | 38 | 1023.9 |
| 20260508165921 | 11 | 340 | 11.3 | 17.7 | 0.00 | 0.00 | 0.00 | 40 | 1023.7 |
| 20260508165419 | 11 | 328 | 9.7 | 14.5 | 0.00 | 0.00 | 0.00 | 40 | 1023.6 |
| 20260508164915 | 10 | 353 | 9.7 | 27.4 | 0.00 | 0.00 | 0.00 | 42 | 1023.9 |
| 20260508164412 | 10 | 357 | 16.1 | 22.5 | 0.00 | 0.00 | 0.00 | 42 | 1023.7 |
| 20260508163909 | 10 | 321 | 14.5 | 20.9 | 0.00 | 0.00 | 0.00 | 41 | 1023.9 |
| 20260508163407 | 10 | 9 | 12.9 | 17.7 | 0.00 | 0.00 | 0.00 | 43 | 1024.1 |
| 20260508162902 | 10 | 15 | 11.3 | 16.1 | 0.00 | 0.00 | 0.00 | 45 | 1023.7 |
| 20260508162400 | 9 | 7 | 9.7 | 14.5 | 0.00 | 0.00 | 0.00 | 44 | 1024.0 |
| 20260508161857 | 9 | 312 | 14.5 | 20.9 | 0.00 | 0.00 | 0.00 | 47 | 1023.9 |
| 20260508161354 | 9 | 261 | 4.8 | 12.9 | 0.00 | 0.00 | 0.00 | 50 | 1023.9 |
| 20260508160851 | 8 | 319 | 4.8 | 11.3 | 0.00 | 0.00 | 0.00 | 49 | 1023.9 |
| 20260508160350 | 8 | 306 | 9.7 | 12.9 | 0.00 | 0.00 | 0.00 | 50 | 1023.9 |
| 20260508155845 | 8 | 333 | 14.5 | 20.9 | 0.00 | 0.00 | 0.00 | 51 | 1023.7 |
| 20260508155343 | 8 | 336 | 6.4 | 16.1 | 0.00 | 0.00 | 0.00 | 56 | 1023.7 |
| 20260508154840 | 8 | 315 | 6.4 | 11.3 | 0.00 | 0.00 | 0.00 | 55 | 1023.7 |
| 20260508154337 | 7 | 308 | 14.5 | 16.1 | 0.00 | 0.00 | 0.00 | 53 | 1023.9 |
| 20260508153833 | 7 | 301 | 6.4 | 14.5 | 0.00 | 0.00 | 0.00 | 55 | 1023.9 |
| 20260508153331 | 7 | 39 | 3.2 | 9.7 | 0.00 | 0.00 | 0.00 | 63 | 1024.0 |
| 20260508152827 | 6 | 314 | 4.8 | 11.3 | 0.00 | 0.00 | 0.00 | 62 | 1024.0 |
| 20260508152324 | 6 | 280 | 9.7 | 14.5 | 0.00 | 0.00 | 0.00 | 62 | 1023.9 |
| 20260508151820 | 7 | 315 | 1.6 | 9.7 | 0.00 | 0.00 | 0.00 | 59 | 1023.9 |
| 20260508151317 | 7 | 277 | 3.2 | 12.9 | 0.00 | 0.00 | 0.00 | 57 | 1023.9 |
| 20260508150813 | 8 | 336 | 8.0 | 11.3 | 0.00 | 0.00 | 0.00 | 57 | 1024.1 |
| 20260508150310 | 6 | 327 | 1.6 | 4.8 | 0.00 | 0.00 | 0.00 | 56 | 1024.0 |
| 20260508145806 | 6 | 306 | 1.6 | 11.3 | 0.00 | 0.00 | 0.00 | 63 | 1023.9 |
| 20260508145306 | 6 | 294 | 3.2 | 6.4 | 0.00 | 0.00 | 0.00 | 63 | 1024.0 |
| 20260508144759 | 6 | 262 | 1.6 | 6.4 | 0.00 | 0.00 | 0.00 | 66 | 1024.1 |
| 20260508144257 | 6 | 338 | 4.8 | 4.8 | 0.00 | 0.00 | 0.00 | 68 | 1023.9 |
| 20260508143755 | 6 | 264 | 1.6 | 12.9 | 0.00 | 0.00 | 0.00 | 62 | 1023.9 |
| 20260508143252 | 6 | 277 | 4.8 | 11.3 | 0.00 | 0.00 | 0.00 | 65 | 1023.7 |
| 20260508142748 | 6 | 309 | 6.4 | 11.3 | 0.00 | 0.00 | 0.00 | 62 | 1023.9 |
| 20260508142245 | 5 | 324 | 4.8 | 11.3 | 0.00 | 0.00 | 0.00 | 65 | 1024.0 |
| 20260508141741 | 5 | 275 | 0.0 | 3.2 | 0.00 | 0.00 | 0.00 | 78 | 1024.1 |
| 20260508141239 | 6 | 332 | 6.4 | 11.3 | 0.00 | 0.00 | 0.00 | 58 | 1024.1 |
| 20260508140736 | 5 | 277 | 6.4 | 9.7 | 0.00 | 0.00 | 0.00 | 62 | 1024.1 |
| 20260508140233 | 4 | 268 | 0.0 | 3.2 | 0.00 | 0.00 | 0.00 | 71 | 1024.0 |
| 20260508135729 | 2 | 248 | 1.6 | 4.8 | 0.00 | 0.00 | 0.00 | 92 | 1024.3 |
| 20260508135225 | 2 | 196 | 1.6 | 3.2 | 0.00 | 0.00 | 0.00 | 98 | 1024.0 |
| 20260508134721 | 1 | 248 | 0.0 | 1.6 | 0.00 | 0.00 | 0.00 | 98 | 1024.1 |
| 20260508134218 | 0 | 241 | 3.2 | 3.2 | 0.00 | 0.00 | 0.00 | 98 | 1024.1 |
| 20260508133715 | 0 | 265 | 0.0 | 3.2 | 0.00 | 0.00 | 0.00 | 98 | 1024.1 |
| 20260508133213 | 0 | 291 | 0.0 | 0.0 | 0.00 | 0.00 | 0.00 | 98 | 1024.1 |
| 20260508132710 | 0 | 211 | 1.6 | 1.6 | 0.00 | 0.00 | 0.00 | 97 | 1024.1 |
| 20260508132207 | 0 | 255 | 0.0 | 0.0 | 0.00 | 0.00 | 0.00 | 97 | 1024.1 |
| 20260508131657 | 0 | 257 | 0.0 | 0.0 | 0.00 | 0.00 | 0.00 | 97 | 1024.3 |
| 20260508131154 | 0 | 266 | 0.0 | 3.2 | 0.00 | 0.00 | 0.00 | 97 | 1024.1 |
| 20260508130651 | 0 | 279 | 1.6 | 3.2 | 0.00 | 0.00 | 0.00 | 96 | 1024.1 |
| 20260508130148 | 0 | 281 | 1.6 | 1.6 | 0.00 | 0.00 | 0.00 | 95 | 1024.3 |
| 20260508125643 | 0 | 80 | 4.8 | 11.3 | 0.00 | 0.00 | 0.00 | 94 | 1024.4 |
| 20260508125140 | 0 | 34 | 6.4 | 9.7 | 0.00 | 0.00 | 0.00 | 88 | 1023.9 |
| 20260508124638 | 2 | 340 | 3.2 | 4.8 | 0.00 | 0.00 | 0.00 | 73 | 1023.7 |
| 20260508124135 | 2 | 253 | 0.0 | 0.0 | 0.00 | 0.00 | 0.00 | 71 | 1023.6 |
| 20260508123634 | 3 | 248 | 0.0 | 3.2 | 0.00 | 0.00 | 0.00 | 68 | 1023.5 |
| 20260508123131 | 2 | 139 | 3.2 | 3.2 | 0.00 | 0.00 | 0.00 | 71 | 1023.2 |
| 20260508122627 | 1 | 255 | 0.0 | 6.4 | 0.00 | 0.00 | 0.00 | 74 | 1023.2 |
| 20260508122124 | 1 | 228 | 0.0 | 1.6 | 0.00 | 0.00 | 0.00 | 75 | 1023.1 |
| 20260508121622 | 1 | 220 | 3.2 | 3.2 | 0.00 | 0.00 | 0.00 | 74 | 1023.1 |
| 20260508121120 | 1 | 211 | 3.2 | 3.2 | 0.00 | 0.00 | 0.00 | 73 | 1023.1 |
| 20260508120617 | 1 | 224 | 3.2 | 3.2 | 0.00 | 0.00 | 0.00 | 73 | 1022.9 |
| 20260508120116 | 1 | 214 | 4.8 | 4.8 | 0.00 | 0.00 | 0.00 | 71 | 1022.8 |
| 20260508115613 | 1 | 234 | 3.2 | 4.8 | 0.00 | 0.00 | 0.00 | 74 | 1022.8 |
| 20260508115109 | 1 | 232 | 1.6 | 3.2 | 0.00 | 0.00 | 0.00 | 72 | 1022.7 |
| 20260508114607 | 1 | 213 | 3.2 | 3.2 | 0.00 | 0.00 | 0.00 | 74 | 1022.5 |
| 20260508114102 | 1 | 250 | 0.0 | 3.2 | 0.00 | 0.00 | 0.00 | 74 | 1022.5 |
| 20260508113600 | 1 | 233 | 1.6 | 4.8 | 0.00 | 0.00 | 0.00 | 71 | 1022.7 |
| 20260508113058 | 2 | 224 | 1.6 | 3.2 | 0.00 | 0.00 | 0.00 | 69 | 1022.7 |
| 20260508112554 | 3 | 231 | 1.6 | 4.8 | 0.00 | 0.00 | 0.00 | 68 | 1022.7 |
| 20260508112051 | 3 | 155 | 6.4 | 11.3 | 0.00 | 0.00 | 0.00 | 67 | 1022.5 |
| 20260508111548 | 2 | 233 | 4.8 | 4.8 | 0.00 | 0.00 | 0.00 | 69 | 1022.5 |
| 20260508111045 | 3 | 285 | 3.2 | 9.7 | 0.00 | 0.00 | 0.00 | 65 | 1022.4 |
| 20260508110543 | 4 | 299 | 8.0 | 16.1 | 0.00 | 0.00 | 0.00 | 59 | 1022.4 |
| 20260508110038 | 3 | 249 | 0.0 | 6.4 | 0.00 | 0.00 | 0.00 | 64 | 1022.1 |
| 20260508105533 | 3 | 262 | 6.4 | 22.5 | 0.00 | 0.00 | 0.00 | 62 | 1022.3 |
| 20260508105031 | 2 | 247 | 1.6 | 3.2 | 0.00 | 0.00 | 0.00 | 67 | 1022.1 |
| 20260508104529 | 1 | 180 | 6.4 | 12.9 | 0.00 | 0.00 | 0.00 | 71 | 1022.3 |
| 20260508104025 | 1 | 207 | 6.4 | 9.7 | 0.00 | 0.00 | 0.00 | 80 | 1022.0 |
| 20260508103522 | 0 | 227 | 6.4 | 6.4 | 0.00 | 0.00 | 0.00 | 81 | 1022.3 |
| 20260508103020 | 1 | 256 | 0.0 | 4.8 | 0.00 | 0.00 | 0.00 | 79 | 1022.5 |
| 20260508102517 | 0 | 205 | 3.2 | 9.7 | 0.00 | 0.00 | 0.00 | 79 | 1022.3 |
| 20260508102015 | 0 | 248 | 0.0 | 4.8 | 0.00 | 0.00 | 0.00 | 80 | 1022.1 |
| 20260508101512 | 0 | 230 | 1.6 | 3.2 | 0.00 | 0.00 | 0.00 | 80 | 1022.0 |
| 20260508101008 | 0 | 210 | 3.2 | 3.2 | 0.00 | 0.00 | 0.00 | 80 | 1022.0 |
| 20260508100507 | 0 | 234 | 1.6 | 4.8 | 0.00 | 0.00 | 0.00 | 80 | 1021.8 |
| 20260508100003 | 0 | 216 | 0.0 | 0.0 | 0.00 | 0.00 | 0.00 | 79 | 1021.9 |
| 20260508095500 | 0 | 242 | 3.2 | 4.8 | 0.00 | 0.00 | 0.00 | 78 | 1022.0 |
| 20260508094957 | 0 | 230 | 0.0 | 0.0 | 0.00 | 0.00 | 0.00 | 79 | 1022.0 |
| 20260508094454 | 0 | 248 | 0.0 | 6.4 | 0.00 | 0.00 | 0.00 | 78 | 1021.9 |
| 20260508093950 | 0 | 220 | 3.2 | 4.8 | 0.00 | 0.00 | 0.00 | 81 | 1021.9 |
| 20260508093447 | 1 | 250 | 1.6 | 9.7 | 0.00 | 0.00 | 0.00 | 78 | 1022.0 |
| 20260508092945 | 1 | 224 | 1.6 | 4.8 | 0.00 | 0.00 | 0.00 | 78 | 1022.0 |
| 20260508092443 | 1 | 208 | 4.8 | 6.4 | 0.00 | 0.00 | 0.00 | 78 | 1022.1 |
| 20260508091942 | 1 | 282 | 1.6 | 4.8 | 0.00 | 0.00 | 0.00 | 77 | 1022.0 |
| 20260508091438 | 1 | 197 | 6.4 | 6.4 | 0.00 | 0.00 | 0.00 | 76 | 1022.1 |
| 20260508090935 | 2 | 252 | 0.0 | 3.2 | 0.00 | 0.00 | 0.00 | 69 | 1022.1 |
| 20260508090434 | 2 | 223 | 3.2 | 3.2 | 0.00 | 0.00 | 0.00 | 70 | 1022.3 |
| 20260508085929 | 3 | 230 | 3.2 | 4.8 | 0.00 | 0.00 | 0.00 | 66 | 1022.3 |
| 20260508085426 | 3 | 262 | 0.0 | 1.6 | 0.00 | 0.00 | 0.00 | 66 | 1022.3 |
| 20260508084923 | 2 | 129 | 3.2 | 4.8 | 0.00 | 0.00 | 0.00 | 65 | 1022.3 |
| 20260508084419 | 3 | 265 | 0.0 | 6.4 | 0.00 | 0.00 | 0.00 | 63 | 1022.3 |
| 20260508083918 | 4 | 238 | 1.6 | 4.8 | 0.00 | 0.00 | 0.00 | 60 | 1022.4 |
| 20260508083415 | 5 | 258 | 0.0 | 14.5 | 0.00 | 0.00 | 0.00 | 53 | 1022.4 |
| 20260508082914 | 3 | 11 | 9.7 | 17.7 | 0.00 | 0.00 | 0.00 | 57 | 1022.3 |
| 20260508082412 | 2 | 226 | 3.2 | 3.2 | 0.00 | 0.00 | 0.00 | 69 | 1023.1 |
| 20260508081910 | 2 | 265 | 0.0 | 3.2 | 0.00 | 0.00 | 0.00 | 67 | 1022.7 |
| 20260508081406 | 2 | 224 | 3.2 | 4.8 | 0.00 | 0.00 | 0.00 | 68 | 1022.7 |
| 20260508080902 | 3 | 230 | 1.6 | 3.2 | 0.00 | 0.00 | 0.00 | 67 | 1022.7 |
| 20260508080401 | 3 | 212 | 3.2 | 4.8 | 0.00 | 0.00 | 0.00 | 63 | 1022.7 |
| 20260508075857 | 5 | 246 | 8.0 | 11.3 | 0.00 | 0.00 | 0.00 | 59 | 1022.9 |
| 20260508075354 | 4 | 231 | 4.8 | 6.4 | 0.00 | 0.00 | 0.00 | 58 | 1022.9 |
| 20260508074852 | 4 | 267 | 3.2 | 4.8 | 0.00 | 0.00 | 0.00 | 61 | 1022.9 |
| 20260508074348 | 4 | 262 | 0.0 | 1.6 | 0.00 | 0.00 | 0.00 | 60 | 1023.1 |
| 20260508073845 | 5 | 243 | 3.2 | 9.7 | 0.00 | 0.00 | 0.00 | 63 | 1023.2 |
| 20260508073344 | 5 | 229 | 4.8 | 6.4 | 0.00 | 0.00 | 0.00 | 60 | 1022.9 |
| 20260508072840 | 5 | 270 | 6.4 | 6.4 | 0.00 | 0.00 | 0.00 | 60 | 1023.5 |
| 20260508072336 | 5 | 232 | 3.2 | 11.3 | 0.00 | 0.00 | 0.00 | 60 | 1023.3 |
| 20260508071834 | 5 | 292 | 6.4 | 16.1 | 0.00 | 0.00 | 0.00 | 56 | 1023.1 |
| 20260508071332 | 5 | 271 | 1.6 | 4.8 | 0.00 | 0.00 | 0.00 | 60 | 1023.2 |
| 20260508070829 | 5 | 353 | 11.3 | 14.5 | 0.00 | 0.00 | 0.00 | 57 | 1023.3 |
| 20260508070327 | 5 | 315 | 4.8 | 4.8 | 0.00 | 0.00 | 0.00 | 61 | 1023.3 |
| 20260508065824 | 5 | 287 | 12.9 | 17.7 | 0.00 | 0.00 | 0.00 | 60 | 1023.5 |
| 20260508065322 | 4 | 252 | 6.4 | 17.7 | 0.00 | 0.00 | 0.00 | 62 | 1023.7 |
| 20260508064820 | 4 | 252 | 4.8 | 12.9 | 0.00 | 0.00 | 0.00 | 68 | 1023.6 |
| 20260508064318 | 3 | 198 | 14.5 | 22.5 | 0.00 | 0.00 | 0.00 | 70 | 1023.6 |
| 20260508063815 | 2 | 219 | 6.4 | 9.7 | 0.00 | 0.00 | 0.00 | 75 | 1023.7 |
| 20260508063313 | 2 | 225 | 6.4 | 9.7 | 0.00 | 0.00 | 0.00 | 82 | 1023.9 |
| 20260508062810 | 1 | 244 | 4.8 | 6.4 | 0.00 | 0.00 | 0.00 | 81 | 1024.0 |
| 20260508062308 | 1 | 238 | 1.6 | 3.2 | 0.00 | 0.00 | 0.00 | 81 | 1023.6 |
| 20260508061804 | 2 | 179 | 4.8 | 4.8 | 0.00 | 0.00 | 0.00 | 79 | 1023.5 |
| 20260508061301 | 1 | 202 | 3.2 | 6.4 | 0.00 | 0.00 | 0.00 | 78 | 1023.5 |
| 20260508060758 | 2 | 232 | 1.6 | 4.8 | 0.00 | 0.00 | 0.00 | 77 | 1023.7 |
| 20260508060256 | 2 | 240 | 0.0 | 0.0 | 0.00 | 0.00 | 0.00 | 76 | 1023.3 |
| 20260508055751 | 2 | 241 | 1.6 | 3.2 | 0.00 | 0.23 | 0.23 | 75 | 1023.6 |
| 20260508055248 | 3 | 321 | 4.8 | 6.4 | 0.00 | 0.23 | 0.23 | 72 | 1023.6 |
| 20260508054744 | 3 | 260 | 0.0 | 1.6 | 0.00 | 0.23 | 0.23 | 64 | 1023.3 |
| 20260508054243 | 3 | 247 | 1.6 | 1.6 | 0.00 | 0.23 | 0.23 | 66 | 1023.6 |
| 20260508053739 | 2 | 209 | 4.8 | 6.4 | 0.00 | 0.23 | 0.23 | 70 | 1023.6 |
| 20260508053236 | 3 | 218 | 3.2 | 6.4 | 0.00 | 0.23 | 0.23 | 70 | 1023.6 |
| 20260508052734 | 3 | 230 | 0.0 | 4.8 | 0.00 | 0.23 | 0.23 | 69 | 1023.6 |
| 20260508052226 | 3 | 226 | 0.0 | 0.0 | 0.00 | 0.23 | 0.23 | 68 | 1023.5 |
| 20260508051722 | 5 | 21 | 3.2 | 6.4 | 0.00 | 0.23 | 0.23 | 64 | 1023.6 |
| 20260508051217 | 5 | 260 | 0.0 | 0.0 | 0.00 | 0.23 | 0.23 | 57 | 1023.3 |
| 20260508050714 | 5 | 258 | 0.0 | 0.0 | 0.00 | 0.23 | 0.23 | 55 | 1023.3 |
| 20260508050212 | 6 | 236 | 0.0 | 0.0 | 0.00 | 0.23 | 0.23 | 55 | 1023.2 |
| 20260508045712 | 6 | 261 | 0.0 | 9.7 | 0.00 | 0.23 | 0.23 | 51 | 1023.2 |
| 20260508045210 | 6 | 244 | 1.6 | 9.7 | 0.00 | 0.23 | 0.23 | 52 | 1023.3 |
| 20260508044707 | 6 | 237 | 3.2 | 6.4 | 0.00 | 0.23 | 0.23 | 53 | 1023.3 |
| 20260508044203 | 6 | 253 | 0.0 | 3.2 | 0.00 | 0.23 | 0.23 | 51 | 1023.2 |
| 20260508043659 | 6 | 252 | 1.6 | 14.5 | 0.00 | 0.23 | 0.23 | 48 | 1023.5 |
| 20260508043158 | 6 | 270 | 1.6 | 6.4 | 0.00 | 0.23 | 0.23 | 49 | 1023.3 |
| 20260508042654 | 7 | 301 | 6.4 | 12.9 | 0.00 | 0.23 | 0.23 | 49 | 1023.2 |
| 20260508042151 | 6 | 250 | 6.4 | 12.9 | 0.00 | 0.23 | 0.23 | 49 | 1023.2 |
| 20260508041647 | 6 | 239 | 8.0 | 11.3 | 0.00 | 0.23 | 0.23 | 49 | 1023.2 |
| 20260508041145 | 7 | 281 | 3.2 | 16.1 | 0.00 | 0.23 | 0.23 | 49 | 1023.2 |
| 20260508040641 | 6 | 255 | 4.8 | 16.1 | 0.00 | 0.23 | 0.23 | 49 | 1022.8 |
| 20260508040138 | 6 | 202 | 11.3 | 20.9 | 0.00 | 0.23 | 0.23 | 49 | 1022.7 |
| 20260508035636 | 7 | 278 | 6.4 | 22.5 | 0.00 | 0.23 | 0.23 | 49 | 1022.7 |
| 20260508035133 | 7 | 240 | 11.3 | 25.7 | 0.00 | 0.23 | 0.23 | 49 | 1022.9 |
| 20260508034630 | 7 | 230 | 20.9 | 29.0 | 0.00 | 0.23 | 0.23 | 48 | 1023.1 |
| 20260508034127 | 6 | 266 | 4.8 | 12.9 | 0.00 | 0.23 | 0.23 | 49 | 1023.1 |
| 20260508033624 | 6 | 233 | 8.0 | 30.6 | 0.00 | 0.23 | 0.23 | 49 | 1022.8 |
| 20260508033122 | 6 | 245 | 9.7 | 25.7 | 0.00 | 0.23 | 0.23 | 50 | 1022.8 |
| 20260508032618 | 6 | 219 | 17.7 | 25.7 | 0.00 | 0.23 | 0.23 | 51 | 1022.9 |
| 20260508032116 | 5 | 197 | 14.5 | 24.1 | 0.00 | 0.23 | 0.23 | 56 | 1022.8 |
| 20260508031613 | 5 | 216 | 9.7 | 12.9 | 0.00 | 0.23 | 0.23 | 60 | 1022.8 |
| 20260508031109 | 5 | 209 | 3.2 | 11.3 | 0.00 | 0.23 | 0.23 | 61 | 1022.7 |
| 20260508030605 | 5 | 226 | 6.4 | 11.3 | 0.00 | 0.23 | 0.23 | 61 | 1022.7 |
| 20260508030104 | 5 | 231 | 4.8 | 14.5 | 0.00 | 0.23 | 0.23 | 60 | 1022.9 |
| 20260508025559 | 5 | 223 | 3.2 | 6.4 | 0.00 | 0.23 | 0.23 | 60 | 1022.8 |
| 20260508025057 | 5 | 228 | 6.4 | 11.3 | 0.00 | 0.23 | 0.23 | 62 | 1022.7 |
| 20260508024552 | 5 | 220 | 8.0 | 12.9 | 0.00 | 0.23 | 0.23 | 59 | 1022.7 |
| 20260508024050 | 5 | 223 | 11.3 | 20.9 | 0.00 | 0.23 | 0.23 | 59 | 1022.3 |
| 20260508023546 | 6 | 229 | 11.3 | 16.1 | 0.00 | 0.23 | 0.23 | 59 | 1022.5 |
| 20260508023044 | 5 | 212 | 6.4 | 14.5 | 0.00 | 0.23 | 0.23 | 58 | 1022.7 |
| 20260508022539 | 5 | 257 | 6.4 | 20.9 | 0.00 | 0.23 | 0.23 | 64 | 1022.8 |
| 20260508022037 | 5 | 238 | 1.6 | 9.7 | 0.00 | 0.23 | 0.23 | 67 | 1022.7 |
| 20260508021533 | 5 | 237 | 9.7 | 12.9 | 0.00 | 0.23 | 0.23 | 67 | 1022.9 |
| 20260508021029 | 5 | 317 | 6.4 | 17.7 | 0.00 | 0.23 | 0.23 | 68 | 1023.3 |
| 20260508020526 | 5 | 274 | 3.2 | 6.4 | 0.00 | 0.23 | 0.23 | 67 | 1023.5 |
| 20260508020024 | 5 | 310 | 3.2 | 12.9 | 0.00 | 0.23 | 0.23 | 65 | 1023.3 |
| 20260508015521 | 5 | 255 | 1.6 | 11.3 | 0.00 | 0.23 | 0.23 | 65 | 1023.2 |
| 20260508015018 | 5 | 289 | 9.7 | 17.7 | 0.00 | 0.23 | 0.23 | 63 | 1023.1 |
| 20260508014515 | 5 | 230 | 3.2 | 9.7 | 0.00 | 0.23 | 0.23 | 63 | 1022.8 |
| 20260508014011 | 5 | 236 | 3.2 | 12.9 | 0.00 | 0.23 | 0.23 | 63 | 1022.7 |
| 20260508013507 | 6 | 262 | 6.4 | 9.7 | 0.00 | 0.23 | 0.23 | 61 | 1022.8 |
| 20260508013005 | 6 | 234 | 9.7 | 12.9 | 0.00 | 0.23 | 0.23 | 60 | 1022.7 |
| 20260508012501 | 6 | 235 | 6.4 | 11.3 | 0.00 | 0.23 | 0.23 | 60 | 1022.7 |
| 20260508011958 | 6 | 236 | 12.9 | 29.0 | 0.00 | 0.23 | 0.23 | 58 | 1022.7 |
| 20260508011456 | 6 | 220 | 9.7 | 22.5 | 0.00 | 0.23 | 0.23 | 58 | 1022.7 |
| 20260508010953 | 6 | 206 | 11.3 | 14.5 | 0.00 | 0.23 | 0.23 | 57 | 1022.5 |
| 20260508010450 | 7 | 252 | 4.8 | 14.5 | 0.00 | 0.23 | 0.23 | 54 | 1022.9 |
| 20260508005947 | 7 | 270 | 8.0 | 11.3 | 0.00 | 0.23 | 0.23 | 51 | 1022.5 |
| 20260508005444 | 7 | 208 | 6.4 | 16.1 | 0.00 | 0.23 | 0.23 | 49 | 1022.4 |
| 20260508004940 | 8 | 242 | 6.4 | 9.7 | 0.00 | 0.23 | 0.23 | 49 | 1022.4 |
| 20260508004436 | 8 | 299 | 3.2 | 3.2 | 0.00 | 0.23 | 0.23 | 48 | 1022.1 |
| 20260508003933 | 8 | 319 | 4.8 | 4.8 | 0.00 | 0.23 | 0.23 | 48 | 1022.0 |
| 20260508003430 | 8 | 289 | 3.2 | 11.3 | 0.00 | 0.23 | 0.23 | 46 | 1022.1 |
| 20260508002927 | 8 | 300 | 3.2 | 11.3 | 0.00 | 0.23 | 0.23 | 46 | 1021.8 |
| 20260508002424 | 8 | 8 | 3.2 | 6.4 | 0.00 | 0.23 | 0.23 | 47 | 1021.9 |
| 20260508001920 | 8 | 266 | 1.6 | 9.7 | 0.00 | 0.23 | 0.23 | 47 | 1021.9 |
| 20260508001416 | 9 | 321 | 6.4 | 11.3 | 0.00 | 0.23 | 0.23 | 45 | 1022.1 |
| 20260508000913 | 9 | 163 | 6.4 | 14.5 | 0.00 | 0.23 | 0.23 | 45 | 1022.1 |
| 20260508000405 | 8 | 278 | 0.0 | 0.0 | 0.00 | 0.23 | 0.23 | 48 | 1022.3 |
| 20260507235901 | 8 | 279 | 3.2 | 9.7 | 0.00 | 0.23 | 0.23 | 47 | 1022.3 |
| 20260507235358 | 8 | 265 | 3.2 | 6.4 | 0.00 | 0.23 | 0.23 | 46 | 1022.3 |
| 20260507234855 | 8 | 259 | 3.2 | 20.9 | 0.00 | 0.23 | 0.23 | 47 | 1022.1 |
| 20260507234352 | 8 | 281 | 1.6 | 16.1 | 0.00 | 0.23 | 0.23 | 46 | 1022.1 |
| 20260507233848 | 8 | 331 | 12.9 | 22.5 | 0.00 | 0.23 | 0.23 | 44 | 1022.1 |
| 20260507233345 | 9 | 293 | 8.0 | 12.9 | 0.00 | 0.23 | 0.23 | 43 | 1022.0 |
| 20260507232843 | 10 | 247 | 11.3 | 22.5 | 0.00 | 0.23 | 0.23 | 42 | 1022.0 |
| 20260507232339 | 10 | 182 | 12.9 | 22.5 | 0.00 | 0.23 | 0.23 | 40 | 1021.9 |
| 20260507231837 | 11 | 267 | 9.7 | 14.5 | 0.00 | 0.23 | 0.23 | 39 | 1022.0 |
| 20260507231333 | 10 | 271 | 8.0 | 16.1 | 0.00 | 0.23 | 0.23 | 40 | 1022.0 |
| 20260507230829 | 10 | 278 | 20.9 | 27.4 | 0.00 | 0.23 | 0.23 | 40 | 1022.1 |
| 20260507230322 | 10 | 316 | 14.5 | 17.7 | 0.00 | 0.23 | 0.23 | 38 | 1021.9 |
| 20260507225821 | 11 | 217 | 17.7 | 24.1 | 0.00 | 0.23 | 0.23 | 38 | 1022.0 |
| 20260507225317 | 10 | 306 | 9.7 | 11.3 | 0.00 | 0.23 | 0.23 | 39 | 1022.3 |
| 20260507224814 | 10 | 349 | 11.3 | 12.9 | 0.00 | 0.23 | 0.23 | 39 | 1022.0 |
| 20260507224310 | 10 | 323 | 6.4 | 16.1 | 0.00 | 0.23 | 0.23 | 40 | 1022.0 |
| 20260507223807 | 10 | 328 | 4.8 | 14.5 | 0.00 | 0.23 | 0.23 | 41 | 1022.0 |
| 20260507223303 | 10 | 324 | 3.2 | 16.1 | 0.00 | 0.23 | 0.23 | 42 | 1022.1 |
| 20260507222801 | 10 | 325 | 4.8 | 14.5 | 0.00 | 0.23 | 0.23 | 41 | 1022.1 |
| 20260507222256 | 10 | 239 | 3.2 | 12.9 | 0.00 | 0.23 | 0.23 | 40 | 1022.1 |
| 20260507221754 | 10 | 280 | 17.7 | 33.8 | 0.00 | 0.23 | 0.23 | 40 | 1022.1 |
| 20260507221250 | 10 | 41 | 6.4 | 16.1 | 0.00 | 0.23 | 0.23 | 41 | 1022.4 |
| 20260507220746 | 10 | 310 | 3.2 | 9.7 | 0.00 | 0.23 | 0.23 | 40 | 1022.4 |
| 20260507220245 | 10 | 207 | 6.4 | 16.1 | 0.00 | 0.23 | 0.23 | 41 | 1022.5 |
| 20260507215741 | 9 | 317 | 6.4 | 12.9 | 0.00 | 0.23 | 0.23 | 41 | 1022.1 |
| 20260507215238 | 10 | 348 | 9.7 | 14.5 | 0.00 | 0.23 | 0.23 | 40 | 1022.3 |